Regional Weather Roundup
Issued by NWS

Home | Current Version | Previous Version | Graphics & Text | Print | Product List | Glossary On
Versions: 1 2 3 4 5 6 7 8 9 10 11 12 13 14 15 16 17 18 19 20 21 22 23 24 25 26 27 28 29 30 31 32 33 34 35 36 37 38 39 40 41 42 43 44 45 46 47 48 49 50
000
ASUS43 KLOT 031808
RWRIL

ILLINOIS REGIONAL WEATHER ROUNDUP
NATIONAL WEATHER SERVICE CHICAGO/ROMEOVILLE IL
100 PM CDT WED JUN 03 2015

NOTE: "FAIR" INDICATES FEW OR NO CLOUDS BELOW 12,000 FEET WITH NO
SIGNIFICANT WEATHER AND/OR OBSTRUCTIONS TO VISIBILITY.

* THESE STATIONS ARE NOT UNDER NWS QUALITY CONTROL. THEY ALSO MAY NOT
  REPORT WEATHER SUCH AS PRECIPITATION OR FOG.

ILZ001-002-007-009-015-016-024-031900-
NORTHWEST ILLINOIS

CITY           SKY/WX    TMP DP  RH WIND       PRES   REMARKS
MOLINE         FAIR      75  58  55 S10G20    29.97F
6HR MIN TEMP:  59; 6HR MAX TEMP:  75;

STERLING*      FAIR      75  59  57 SE9       29.99F
SAVANNA*       FAIR      76  56  49 S14G21    29.97F
$$

ILZ003-004-008-010-011-017-018-031900-
NORTH CENTRAL ILLINOIS

CITY           SKY/WX    TMP DP  RH WIND       PRES   REMARKS
ROCKFORD       PTSUNNY   76  57  51 SE12      30.02F
6HR MIN TEMP:  58; 6HR MAX TEMP:  76;

FREEPORT*      FAIR      74  58  56 SE14      30.00F
ROCHELLE*      FAIR      75  56  52 S9        30.02F
DE KALB*       PTSUNNY   71  57  60 S7        30.04S
PERU*          PTSUNNY   75  56  50 S10       30.02F
$$

ILZ005-006-012>014-019>023-031900-
NORTHEAST ILLINOIS

CITY           SKY/WX    TMP DP  RH WIND       PRES   REMARKS
CHICAGO-OHARE  MOSUNNY   72  54  53 VRB7      30.03F
6HR MIN TEMP:  57; 6HR MAX TEMP:  72;

CHICAGO-MIDWAY MOSUNNY   74  53  48 S8        30.03F
6HR MIN TEMP:  59; 6HR MAX TEMP:  74;

AURORA         MOSUNNY   75  55  49 S7        30.04S
6HR MIN TEMP:  57; 6HR MAX TEMP:  75;

LANSING*       SUNNY     71  50  47 S6        30.05F
JOLIET*        SUNNY     74  58  56 SW5       30.04S
WAUKEGAN       SUNNY     64  52  64 E13       30.04F
6HR MIN TEMP:  53; 6HR MAX TEMP:  65;

DUPAGE AIRPORT MOSUNNY   74  56  53 S8        30.03F
6HR MIN TEMP:  55; 6HR MAX TEMP:  74;

KANKAKEE*      SUNNY     71  58  62 SE6       30.05F
WHEELING       MOSUNNY   72  52  49 VRB6      30.04F
6HR MIN TEMP:  56; 6HR MAX TEMP:  73;

MORRIS*        MOSUNNY   75  56  51 S7        30.02S
ROMEOVILLE*    MOSUNNY   73  54  51 S6        30.04S
NORTHERLY ISL    N/A     61  53  75 E9          N/A
$$

LMZ740>746-031900-
SOUTHERN LAKE MICHIGAN

STATION/POSITION SKY/WX   TEMP    WIND        PRES    VSBY  WAVE
                          AIR SEA DIR/SP/G                  HT/PER
                          (F)     (DEG/KT/KT) (MB)    (MI)  (FT/S)
SOUTHERN BUOY              45 39  130/  8/  8 1018.8F         0
HARRISON CRIB              57     100/ 13/ 14   N/A
BURNHAM HARBOR             60      70/  6/  9   N/A
CALUMET HARBOR             60      50/  8/  9   N/A
BURNS HARBOR                       80/  3/ 10 1018.6F
MICHIGAN CITY              61     360/  6/  7   N/A
MICHIGAN CITY 6N           58 58   20/  6/  8   N/A           0
ST. JOSEPH                 59 58   30/  6/  6   N/A           0
$$

ILZ025>027-034>036-040-047-049-050-058-095>099-031900-
WEST-CENTRAL ILLINOIS

CITY           SKY/WX    TMP DP  RH WIND       PRES   REMARKS
QUINCY         PTSUNNY   67  58  72 S12       30.02S
GALESBURG*     FAIR      73  59  62 S9G17     30.00F
MACOMB*        FAIR      72  59  63 S13G21    30.03F
JACKSONVILLE*  PTSUNNY   72  61  69 S10       30.04S
PITTSFIELD*    CLOUDY    68  60  74 S7        30.05S
$$

ILZ028>032-037-038-041>044-048-051>054-059>061-031900-
CENTRAL ILLINOIS

CITY           SKY/WX    TMP DP  RH WIND       PRES   REMARKS
PONTIAC        CLOUDY    73  60  61 S6        30.04F
BLOOMINGTON    PTSUNNY   72  60  65 S12       30.06S
DECATUR        PTSUNNY   71  57  61 S7        30.05S
PEORIA         FAIR      75  58  55 SE9       30.02F
6HR MIN TEMP:  60; 6HR MAX TEMP:  75;

LACON*         FAIR      73  58  59 S12       30.01F
LINCOLN*       PTSUNNY   73  58  60 S9        30.02F
SPRINGFIELD    FAIR      73  58  59 S12       30.04F
6HR MIN TEMP:  60; 6HR MAX TEMP:  74;

TAYLORVILLE    PTSUNNY   70  57  64 SE7       30.05S
$$

ILZ033-039-045-046-055>057-062-063-031900-
EAST-CENTRAL ILLINOIS

CITY           SKY/WX    TMP DP  RH WIND       PRES   REMARKS
CHAMPAIGN      MOSUNNY   74  56  53 S9        30.04F
DANVILLE*      MOSUNNY   69  56  63 SE8       30.04S
RANTOUL*       PTSUNNY   74  57  56 SE6       30.04F
MATTOON        FAIR      70  58  65 VRB3      30.05S
PARIS*         MOSUNNY   70  56  61 CALM      30.07S
$$

ILZ079-100>102-031900-
SOUTHWEST ILLINOIS

CITY           SKY/WX    TMP DP  RH WIND       PRES   REMARKS
ALTON          PTSUNNY   68  64  88 S7        30.05F
BELLEVILLE     PTSUNNY   72  61  69 SE8       30.04F
CAHOKIA*       CLOUDY    70  58  65 VRB5      30.05S
SPARTA*        PTSUNNY   69  59  71 SW5       30.07S
$$

ILZ064>066-069>071-074>076-080>082-084>086-088>090-092>094-031900-
SOUTH-CENTRAL ILLINOIS

CITY           SKY/WX    TMP DP  RH WIND       PRES   REMARKS
CARBONDALE     PTSUNNY   74  57  55 VRB5      30.04F
6HR MIN TEMP:  57; 6HR MAX TEMP:  74;

CAIRO*         PTSUNNY   73  59  60 NW3       30.04F
EFFINGHAM*     CLOUDY    69  54  58 SE7       30.07F
MARION         MOSUNNY   72  59  64 MISG      30.06F
MT. VERNON     FAIR      72  55  56 CALM      30.07F
CENTRALIA*     FAIR      74  56  54 SE3       30.06F
SALEM*         FAIR      71  58  62 SE7       30.06F
METROPOLIS*    FAIR      73  58  57 N3        30.04F
$$

ILZ067-068-072-073-078-083-087-091-031900-
SOUTHEAST ILLINOIS

CITY           SKY/WX    TMP DP  RH WIND       PRES   REMARKS
LAWRENCEVILLE  MOSUNNY   69  55  60 CALM      30.08S
FLORA*         MOSUNNY   68  57  67 SE6       30.07S
FAIRFIELD*     PTSUNNY   69  57  65 E3        30.05F
HARRISBURG*    FAIR      71  57  60 E6        30.06F
ROBINSON*      MOSUNNY   68  55  62 E3        30.08F
CARMI*         FAIR      72  50  46 NE5       30.05F
$$

ABBREVIATIONS USED IN REMARKS
   TC - TEMPERATURE IN CELSIUS
  WCI - WIND CHILL INDEX
   HX - HEAT INDEX
  VSB - VISIBILITY
$$



USA.gov is the U.S. government's official web portal to all federal, state and local government web resources and services.